Location: Bay Harbour
(38.2612°N, 75.2555°W)
Time: 02:14:45
(UTC+00:00)

GPS 2-04 Rocket1 - Pass Details

Date: 29 October 2020
Orbit: 417 x 546 km, 35.6° (Epoch: 02 December)

Event Time Altitude Azimuth Distance (km) Brightness Sun altitude
Rises 23:32:00 0° 250° (WSW) 2,615 7.7 -17.7°
Reaches altitude 10° 23:34:14 10° 245° (WSW) 1,749 6.4 -18.2°
Maximum altitude 23:38:10 50° 169° (S) 680 3.2 -18.9°
Enters shadow 23:39:02 42° 129° (SE) 772 3.2 -19.1°
